QPF
0.00 0.00 0.00 0.00 0.00 0.00 0.00 0.00 0.00 0.00 0.00 0.00 0.00 0.00 0.00 0.00 0.00 0.00 0.00 0.00 0.00 0.00 0.00 0.00 0.00 0.00 0.00 0.00 0.00 0.00 0.01 0.02 0.03 0.02 0.01 0.00 0.00 0.00 0.00 0.00 0.00 0.01 0.02
0.00 0.00 0.00 0.00 0.00 0.00 0.00 0.00 0.00 0.00 0.00 0.00 0.00 0.00 0.00 0.00 0.00 0.00 0.00 0.00 0.00 0.00 0.00 0.00 0.00 0.00 0.00 0.00 0.00 0.01 0.01 0.02 0.04 0.04 0.02 0.00 0.00 0.00 0.00 0.00 0.00 0.01 0.01
0.00 0.00 0.00 0.00 0.00 0.00 0.00 0.00 0.00 0.00 0.00 0.00 0.00 0.00 0.00 0.00 0.00 0.00 0.00 0.00 0.00 0.00 0.00 0.00 0.00 0.00 0.00 0.00 0.01 0.01 0.02 0.03 0.03 0.04 0.01 0.00 0.00 0.00 0.00 0.00 0.00 0.01 0.01
0.00 0.00 0.00 0.00 0.00 0.00 0.00 0.00 0.00 0.00 0.00 0.00 0.00 0.00 0.00 0.00 0.00 0.00 0.00 0.00 0.00 0.00 0.00 0.00 0.00 0.00 0.00 0.01 0.02 0.02 0.02 0.02 0.01 0.01 0.01 0.00 0.00 0.00 0.00 0.01 0.02 0.02 0.02
0.00 0.00 0.00 0.00 0.00 0.00 0.00 0.00 0.00 0.00 0.00 0.00 0.00 0.00 0.00 0.00 0.00 0.00 0.00 0.00 0.00 0.00 0.00 0.00 0.00 0.00 0.01 0.02 0.03 0.03 0.02 0.02 0.01 0.01 0.01 0.01 0.01 0.01 0.02 0.03 0.04 0.04 0.03
0.00 0.00 0.00 0.00 0.00 0.00 0.00 0.00 0.00 0.00 0.00 0.00 0.00 0.00 0.00 0.00 0.00 0.00 0.00 0.00 0.00 0.00 0.00 0.00 0.00 0.00 0.00 0.01 0.02 0.02 0.02 0.02 0.02 0.03 0.03 0.02 0.01 0.01 0.03 0.05 0.06 0.05 0.04
0.00 0.00 0.00 0.00 0.00 0.00 0.00 0.00 0.00 0.00 0.00 0.00 0.00 0.00 0.00 0.00 0.00 0.00 0.00 0.00 0.00 0.00 0.00 0.00 0.00 0.00 0.00 0.00 0.01 0.01 0.01 0.01 0.03 0.06 0.08 0.05 0.03 0.04 0.06 0.06 0.05 0.04 0.04
0.00 0.00 0.00 0.00 0.00 0.00 0.00 0.00 0.00 0.00 0.00 0.00 0.00 0.00 0.00 0.00 0.00 0.00 0.00 0.00 0.00 0.00 0.00 0.00 0.00 0.00 0.01 0.01 0.01 0.00 0.00 0.01 0.04 0.07 0.09 0.08 0.07 0.06 0.06 0.06 0.05 0.03 0.03
0.00 0.00 0.00 0.00 0.00 0.00 0.00 0.00 0.00 0.00 0.00 0.00 0.00 0.00 0.00 0.00 0.00 0.00 0.00 0.00 0.00 0.00 0.00 0.00 0.00 0.00 0.01 0.01 0.01 0.01 0.01 0.02 0.07 0.14 0.15 0.13 0.09 0.07 0.05 0.03 0.03 0.03 0.04
0.00 0.00 0.00 0.00 0.00 0.00 0.00 0.00 0.00 0.00 0.00 0.00 0.00 0.00 0.00 0.00 0.00 0.00 0.00 0.00 0.00 0.00 0.00 0.00 0.00 0.01 0.01 0.01 0.01 0.02 0.03 0.06 0.13 0.20 0.18 0.11 0.07 0.05 0.05 0.04 0.04 0.06 0.06
0.00 0.00 0.00 0.00 0.00 0.00 0.00 0.00 0.00 0.00 0.00 0.00 0.00 0.00 0.00 0.00 0.00 0.00 0.01 0.01 0.01 0.01 0.01 0.01 0.01 0.02 0.01 0.01 0.03 0.05 0.09 0.13 0.20 0.23 0.18 0.09 0.04 0.03 0.04 0.05 0.05 0.05 0.04
0.00 0.00 0.00 0.00 0.00 0.00 0.00 0.00 0.00 0.00 0.00 0.00 0.00 0.00 0.00 0.00 0.00 0.00 0.00 0.01 0.02 0.02 0.04 0.04 0.04 0.03 0.02 0.03 0.06 0.10 0.15 0.19 0.22 0.20 0.13 0.07 0.03 0.02 0.03 0.03 0.02 0.01 0.01
0.00 0.00 0.00 0.00 0.00 0.00 0.00 0.00 0.00 0.00 0.00 0.00 0.00 0.00 0.00 0.00 0.00 0.00 0.00 0.01 0.01 0.03 0.04 0.04 0.03 0.03 0.05 0.07 0.13 0.17 0.19 0.21 0.20 0.14 0.08 0.05 0.03 0.02 0.01 0.01 0.01 0.01 0.01
0.00 0.00 0.00 0.00 0.00 0.00 0.00 0.00 0.00 0.00 0.00 0.00 0.00 0.00 0.01 0.00 0.01 0.01 0.01 0.01 0.02 0.03 0.02 0.02 0.03 0.06 0.10 0.15 0.17 0.19 0.20 0.22 0.17 0.08 0.04 0.03 0.02 0.01 0.01 0.01 0.01 0.01 0.02
0.00 0.00 0.00 0.00 0.00 0.00 0.00 0.00 0.00 0.00 0.00 0.00 0.01 0.01 0.01 0.01 0.01 0.02 0.03 0.04 0.04 0.04 0.03 0.02 0.04 0.07 0.12 0.16 0.17 0.17 0.18 0.18 0.12 0.05 0.03 0.02 0.01 0.01 0.01 0.01 0.02 0.02 0.03
0.00 0.00 0.00 0.00 0.00 0.00 0.00 0.00 0.00 0.00 0.00 0.00 0.01 0.01 0.01 0.01 0.01 0.01 0.02 0.03 0.04 0.04 0.03 0.05 0.07 0.10 0.14 0.17 0.18 0.18 0.16 0.12 0.07 0.03 0.02 0.01 0.01 0.01 0.02 0.02 0.03 0.03 0.03
0.00 0.00 0.00 0.00 0.00 0.00 0.00 0.00 0.00 0.00 0.00 0.00 0.00 0.01 0.01 0.01 0.01 0.01 0.01 0.02 0.03 0.04 0.05 0.08 0.10 0.13 0.15 0.16 0.16 0.15 0.13 0.10 0.06 0.03 0.02 0.01 0.01 0.02 0.02 0.02 0.02 0.02 0.02
0.00 0.00 0.00 0.00 0.00 0.00 0.00 0.00 0.00 0.00 0.00 0.00 0.00 0.00 0.01 0.01 0.01 0.01 0.01 0.01 0.01 0.03 0.07 0.11 0.13 0.14 0.16 0.16 0.15 0.13 0.12 0.10 0.06 0.04 0.02 0.02 0.02 0.02 0.02 0.02 0.02 0.01 0.01
0.00 0.00 0.00 0.00 0.00 0.00 0.00 0.00 0.00 0.00 0.00 0.00 0.01 0.00 0.01 0.01 0.01 0.01 0.01 0.01 0.02 0.05 0.09 0.13 0.14 0.15 0.15 0.15 0.14 0.13 0.11 0.09 0.07 0.05 0.04 0.03 0.03 0.03 0.03 0.02 0.01 0.01 0.00
0.00 0.00 0.00 0.00 0.00 0.00 0.00 0.00 0.00 0.00 0.00 0.01 0.01 0.01 0.01 0.02 0.02 0.02 0.02 0.02 0.03 0.06 0.09 0.13 0.15 0.14 0.12 0.11 0.11 0.10 0.10 0.08 0.07 0.06 0.05 0.05 0.04 0.03 0.03 0.01 0.01 0.00 0.00
0.00 0.00 0.00 0.00 0.00 0.00 0.00 0.00 0.00 0.00 0.00 0.00 0.01 0.01 0.02 0.02 0.03 0.04 0.05 0.05 0.05 0.07 0.09 0.11 0.13 0.12 0.10 0.08 0.07 0.07 0.06 0.06 0.06 0.06 0.06 0.05 0.04 0.03 0.02 0.01 0.00 0.00 0.00
0.00 0.00 0.00 0.00 0.00 0.00 0.00 0.00 0.00 0.00 0.00 0.00 0.00 0.01 0.02 0.02 0.03 0.04 0.05 0.06 0.07 0.07 0.08 0.08 0.10 0.10 0.09 0.07 0.06 0.05 0.05 0.04 0.04 0.05 0.05 0.04 0.03 0.02 0.01 0.01 0.00 0.00 0.00
0.00 0.00 0.00 0.00 0.00 0.00 0.00 0.00 0.00 0.00 0.00 0.00 0.00 0.01 0.01 0.02 0.03 0.03 0.04 0.05 0.05 0.05 0.06 0.06 0.07 0.08 0.08 0.06 0.05 0.04 0.04 0.04 0.03 0.03 0.03 0.03 0.03 0.02 0.01 0.00 0.00 0.00 0.00
0.00 0.00 0.00 0.00 0.00 0.00 0.00 0.00 0.00 0.00 0.00 0.00 0.00 0.00 0.01 0.01 0.02 0.03 0.04 0.04 0.05 0.05 0.05 0.06 0.07 0.07 0.06 0.05 0.04 0.03 0.02 0.02 0.02 0.02 0.02 0.02 0.02 0.01 0.00 0.00 0.00 0.00 0.00
0.00 0.00 0.00 0.00 0.00 0.00 0.00 0.00 0.00 0.00 0.00 0.00 0.00 0.00 0.00 0.00 0.01 0.02 0.02 0.03 0.04 0.04 0.05 0.06 0.06 0.06 0.04 0.03 0.02 0.01 0.01 0.02 0.01 0.01 0.01 0.01 0.01 0.01 0.00 0.00 0.00 0.00 0.00
0.00 0.00 0.00 0.00 0.00 0.00 0.00 0.00 0.00 0.00 0.00 0.00 0.00 0.00 0.00 0.00 0.00 0.01 0.01 0.01 0.02 0.02 0.04 0.05 0.06 0.05 0.03 0.02 0.01 0.01 0.01 0.01 0.01 0.01 0.01 0.01 0.01 0.01 0.01 0.01 0.00 0.00 0.00
MSLP
1020.72 1020.85 1020.97 1021.04 1021.05 1020.98 1020.84 1020.65 1020.43 1020.19 1019.97 1019.77 1019.60 1019.47 1019.36 1019.28 1019.21 1019.16 1019.11 1019.06 1018.99 1018.88 1018.73 1018.51 1018.19 1017.76 1017.24 1016.62 1015.93 1015.20 1014.48 1013.78 1013.13 1012.55 1012.02 1011.55 1011.11 1010.69 1010.30 1009.92 1009.57 1009.27 1009.03
1020.77 1020.81 1020.84 1020.82 1020.76 1020.65 1020.49 1020.29 1020.07 1019.85 1019.64 1019.45 1019.30 1019.18 1019.08 1019.00 1018.93 1018.87 1018.80 1018.71 1018.60 1018.44 1018.23 1017.95 1017.59 1017.14 1016.60 1016.00 1015.35 1014.67 1013.98 1013.32 1012.69 1012.10 1011.55 1011.04 1010.55 1010.10 1009.68 1009.30 1008.99 1008.75 1008.59
1020.71 1020.67 1020.62 1020.53 1020.42 1020.27 1020.09 1019.89 1019.69 1019.49 1019.31 1019.15 1019.03 1018.93 1018.85 1018.78 1018.71 1018.63 1018.52 1018.40 1018.23 1018.01 1017.73 1017.39 1016.98 1016.50 1015.96 1015.36 1014.73 1014.08 1013.43 1012.79 1012.16 1011.56 1010.99 1010.44 1009.94 1009.48 1009.07 1008.74 1008.49 1008.33 1008.26
1020.57 1020.47 1020.36 1020.22 1020.06 1019.89 1019.71 1019.52 1019.34 1019.18 1019.04 1018.92 1018.83 1018.76 1018.69 1018.63 1018.55 1018.44 1018.30 1018.12 1017.89 1017.60 1017.25 1016.85 1016.39 1015.87 1015.31 1014.71 1014.09 1013.45 1012.81 1012.17 1011.53 1010.91 1010.32 1009.76 1009.25 1008.80 1008.44 1008.18 1008.03 1007.97 1007.99
1020.38 1020.25 1020.10 1019.93 1019.76 1019.58 1019.40 1019.24 1019.10 1018.97 1018.87 1018.80 1018.73 1018.68 1018.62 1018.55 1018.44 1018.30 1018.10 1017.86 1017.55 1017.19 1016.77 1016.30 1015.79 1015.23 1014.64 1014.03 1013.40 1012.75 1012.10 1011.44 1010.79 1010.15 1009.53 1008.97 1008.48 1008.08 1007.79 1007.63 1007.58 1007.63 1007.73
1020.19 1020.05 1019.89 1019.72 1019.55 1019.38 1019.23 1019.10 1018.99 1018.90 1018.84 1018.79 1018.75 1018.70 1018.62 1018.52 1018.37 1018.17 1017.91 1017.58 1017.20 1016.75 1016.25 1015.72 1015.14 1014.55 1013.93 1013.29 1012.65 1011.99 1011.32 1010.64 1009.96 1009.30 1008.68 1008.13 1007.67 1007.33 1007.13 1007.07 1007.14 1007.29 1007.48
1020.05 1019.93 1019.78 1019.63 1019.48 1019.34 1019.22 1019.12 1019.04 1018.99 1018.94 1018.90 1018.86 1018.79 1018.68 1018.52 1018.31 1018.03 1017.68 1017.26 1016.78 1016.25 1015.67 1015.06 1014.43 1013.79 1013.14 1012.49 1011.83 1011.16 1010.48 1009.79 1009.11 1008.44 1007.83 1007.30 1006.89 1006.62 1006.52 1006.56 1006.74 1007.00 1007.26
1019.99 1019.90 1019.79 1019.67 1019.56 1019.46 1019.37 1019.31 1019.26 1019.21 1019.17 1019.12 1019.05 1018.93 1018.76 1018.54 1018.24 1017.86 1017.41 1016.88 1016.30 1015.67 1015.01 1014.33 1013.64 1012.96 1012.29 1011.63 1010.96 1010.30 1009.64 1008.96 1008.30 1007.67 1007.09 1006.61 1006.26 1006.07 1006.05 1006.19 1006.46 1006.80 1007.12
1020.02 1019.98 1019.92 1019.86 1019.79 1019.73 1019.68 1019.64 1019.60 1019.55 1019.49 1019.41 1019.28 1019.10 1018.85 1018.53 1018.13 1017.65 1017.08 1016.45 1015.76 1015.04 1014.29 1013.54 1012.80 1012.09 1011.40 1010.75 1010.11 1009.48 1008.86 1008.25 1007.64 1007.08 1006.57 1006.16 1005.89 1005.77 1005.82 1006.03 1006.36 1006.75 1007.12
1020.17 1020.18 1020.18 1020.16 1020.14 1020.12 1020.09 1020.06 1020.02 1019.95 1019.86 1019.72 1019.52 1019.27 1018.93 1018.51 1018.01 1017.42 1016.74 1016.00 1015.21 1014.39 1013.56 1012.74 1011.96 1011.23 1010.54 1009.91 1009.32 1008.76 1008.23 1007.71 1007.21 1006.75 1006.35 1006.03 1005.84 1005.79 1005.89 1006.14 1006.50 1006.91 1007.30
1020.41 1020.48 1020.52 1020.56 1020.58 1020.59 1020.57 1020.53 1020.47 1020.37 1020.22 1020.02 1019.75 1019.41 1018.98 1018.47 1017.87 1017.18 1016.41 1015.57 1014.69 1013.79 1012.89 1012.02 1011.20 1010.45 1009.79 1009.20 1008.68 1008.22 1007.80 1007.42 1007.06 1006.74 1006.46 1006.26 1006.14 1006.15 1006.28 1006.53 1006.88 1007.28 1007.66
1020.73 1020.84 1020.94 1021.02 1021.07 1021.08 1021.07 1021.01 1020.91 1020.76 1020.55 1020.27 1019.93 1019.50 1019.00 1018.41 1017.73 1016.97 1016.13 1015.22 1014.27 1013.30 1012.35 1011.44 1010.60 1009.85 1009.20 1008.67 1008.24 1007.90 1007.62 1007.39 1007.20 1007.04 1006.90 1006.81 1006.78 1006.83 1006.96 1007.19 1007.49 1007.83 1008.17
1021.10 1021.26 1021.40 1021.50 1021.56 1021.58 1021.54 1021.45 1021.30 1021.08 1020.80 1020.45 1020.03 1019.54 1018.98 1018.33 1017.60 1016.80 1015.91 1014.97 1013.98 1012.98 1012.00 1011.06 1010.21 1009.47 1008.86 1008.39 1008.05 1007.83 1007.69 1007.63 1007.60 1007.60 1007.61 1007.63 1007.67 1007.74 1007.86 1008.03 1008.25 1008.51 1008.77
1021.52 1021.70 1021.86 1021.98 1022.04 1022.04 1021.97 1021.83 1021.61 1021.32 1020.97 1020.55 1020.06 1019.52 1018.91 1018.23 1017.49 1016.67 1015.78 1014.84 1013.85 1012.85 1011.86 1010.93 1010.08 1009.36 1008.79 1008.37 1008.12 1008.00 1008.00 1008.09 1008.22 1008.36 1008.50 1008.62 1008.71 1008.80 1008.88 1008.98 1009.10 1009.25 1009.43
1021.94 1022.15 1022.32 1022.44 1022.48 1022.45 1022.34 1022.13 1021.84 1021.48 1021.05 1020.56 1020.02 1019.43 1018.80 1018.12 1017.39 1016.60 1015.74 1014.83 1013.88 1012.91 1011.95 1011.04 1010.22 1009.53 1008.99 1008.63 1008.44 1008.41 1008.52 1008.72 1008.97 1009.23 1009.47 1009.66 1009.80 1009.88 1009.92 1009.94 1009.97 1010.02 1010.10
1022.38 1022.60 1022.77 1022.87 1022.90 1022.82 1022.65 1022.38 1022.02 1021.58 1021.08 1020.52 1019.94 1019.32 1018.68 1018.02 1017.32 1016.58 1015.79 1014.95 1014.07 1013.16 1012.26 1011.40 1010.62 1009.96 1009.46 1009.13 1008.99 1009.02 1009.19 1009.46 1009.79 1010.13 1010.43 1010.67 1010.83 1010.90 1010.91 1010.87 1010.82 1010.78 1010.79
1022.81 1023.03 1023.20 1023.29 1023.28 1023.16 1022.93 1022.60 1022.17 1021.66 1021.09 1020.49 1019.86 1019.23 1018.60 1017.96 1017.32 1016.64 1015.93 1015.18 1014.39 1013.57 1012.75 1011.96 1011.23 1010.61 1010.14 1009.84 1009.72 1009.76 1009.96 1010.26 1010.62 1010.99 1011.32 1011.59 1011.76 1011.83 1011.81 1011.74 1011.64 1011.55 1011.50
1023.25 1023.47 1023.62 1023.69 1023.65 1023.49 1023.22 1022.83 1022.34 1021.77 1021.15 1020.51 1019.86 1019.22 1018.60 1018.00 1017.41 1016.81 1016.20 1015.54 1014.85 1014.13 1013.40 1012.68 1012.01 1011.44 1010.99 1010.70 1010.57 1010.61 1010.79 1011.08 1011.43 1011.79 1012.13 1012.39 1012.56 1012.64 1012.62 1012.54 1012.43 1012.33 1012.28
1023.68 1023.89 1024.04 1024.08 1024.02 1023.84 1023.53 1023.10 1022.58 1021.97 1021.32 1020.66 1020.00 1019.36 1018.76 1018.20 1017.66 1017.13 1016.60 1016.04 1015.45 1014.82 1014.18 1013.54 1012.93 1012.40 1011.96 1011.67 1011.52 1011.52 1011.65 1011.89 1012.20 1012.53 1012.83 1013.08 1013.25 1013.34 1013.34 1013.29 1013.22 1013.15 1013.14
1024.12 1024.32 1024.45 1024.48 1024.41 1024.21 1023.88 1023.45 1022.91 1022.30 1021.65 1020.98 1020.32 1019.70 1019.13 1018.60 1018.11 1017.64 1017.17 1016.69 1016.18 1015.63 1015.06 1014.49 1013.93 1013.43 1013.00 1012.69 1012.51 1012.46 1012.52 1012.69 1012.93 1013.20 1013.46 1013.68 1013.85 1013.96 1014.00 1014.00 1013.99 1014.00 1014.06
1024.54 1024.73 1024.85 1024.88 1024.80 1024.61 1024.30 1023.88 1023.36 1022.77 1022.15 1021.50 1020.88 1020.28 1019.73 1019.24 1018.78 1018.35 1017.92 1017.49 1017.03 1016.54 1016.03 1015.50 1014.98 1014.49 1014.07 1013.73 1013.50 1013.39 1013.38 1013.47 1013.62 1013.82 1014.03 1014.22 1014.39 1014.51 1014.60 1014.68 1014.75 1014.85 1015.00
1024.94 1025.12 1025.23 1025.26 1025.20 1025.03 1024.76 1024.38 1023.92 1023.39 1022.81 1022.22 1021.64 1021.08 1020.57 1020.09 1019.66 1019.24 1018.84 1018.43 1017.99 1017.53 1017.04 1016.53 1016.03 1015.55 1015.11 1014.75 1014.47 1014.29 1014.20 1014.21 1014.28 1014.40 1014.56 1014.72 1014.88 1015.02 1015.16 1015.30 1015.46 1015.65 1015.89
1025.30 1025.47 1025.58 1025.63 1025.59 1025.46 1025.25 1024.94 1024.55 1024.10 1023.61 1023.09 1022.57 1022.07 1021.59 1021.13 1020.70 1020.29 1019.88 1019.46 1019.02 1018.55 1018.06 1017.55 1017.04 1016.55 1016.09 1015.70 1015.38 1015.14 1014.99 1014.92 1014.92 1014.97 1015.07 1015.19 1015.33 1015.49 1015.66 1015.86 1016.08 1016.35 1016.67
1025.63 1025.79 1025.90 1025.96 1025.96 1025.89 1025.74 1025.52 1025.22 1024.87 1024.48 1024.05 1023.60 1023.15 1022.71 1022.27 1021.84 1021.41 1020.98 1020.53 1020.06 1019.56 1019.05 1018.52 1017.99 1017.48 1017.01 1016.58 1016.22 1015.94 1015.73 1015.60 1015.53 1015.52 1015.57 1015.65 1015.77 1015.92 1016.11 1016.33 1016.60 1016.91 1017.27
1025.92 1026.08 1026.20 1026.28 1026.32 1026.30 1026.22 1026.09 1025.89 1025.64 1025.34 1025.00 1024.64 1024.25 1023.84 1023.42 1022.99 1022.54 1022.07 1021.58 1021.07 1020.53 1019.98 1019.43 1018.87 1018.34 1017.85 1017.40 1017.01 1016.69 1016.44 1016.26 1016.14 1016.08 1016.07 1016.12 1016.20 1016.34 1016.51 1016.74 1017.01 1017.33 1017.69
1026.21 1026.36 1026.49 1026.59 1026.66 1026.69 1026.68 1026.63 1026.52 1026.36 1026.16 1025.91 1025.61 1025.27 1024.90 1024.50 1024.06 1023.59 1023.09 1022.56 1022.01 1021.44 1020.85 1020.27 1019.70 1019.15 1018.64 1018.17 1017.77 1017.42 1017.14 1016.92 1016.76 1016.65 1016.60 1016.60 1016.64 1016.74 1016.88 1017.08 1017.33 1017.63 1017.97
Thickness
5573 5568 5564 5560 5555 5550 5543 5536 5529 5522 5514 5507 5501 5495 5490 5485 5480 5474 5469 5464 5459 5453 5448 5444 5441 5438 5435 5433 5432 5432 5432 5433 5440 5448 5446 5446 5446 5448 5452 5455 5458 5462 5466
5562 5557 5552 5548 5544 5538 5531 5524 5517 5510 5504 5497 5491 5486 5481 5477 5471 5465 5459 5452 5445 5439 5434 5429 5426 5424 5422 5421 5421 5422 5424 5425 5429 5436 5439 5439 5440 5442 5447 5451 5456 5460 5464
5553 5547 5541 5537 5532 5525 5519 5512 5506 5500 5494 5488 5482 5477 5472 5468 5462 5455 5447 5438 5431 5424 5418 5414 5412 5410 5410 5409 5410 5413 5416 5419 5421 5425 5431 5432 5435 5439 5444 5449 5454 5457 5460
5541 5535 5530 5526 5520 5514 5508 5502 5497 5491 5485 5479 5473 5468 5462 5457 5450 5442 5433 5425 5417 5411 5405 5401 5399 5398 5398 5400 5402 5406 5410 5413 5414 5417 5422 5428 5433 5438 5441 5447 5452 5455 5456
5530 5525 5521 5516 5510 5504 5499 5494 5489 5483 5478 5471 5464 5457 5450 5443 5436 5427 5419 5411 5404 5399 5395 5391 5390 5390 5393 5395 5398 5401 5404 5407 5409 5412 5418 5425 5432 5436 5441 5446 5450 5451 5451
5521 5517 5512 5506 5501 5495 5491 5486 5480 5474 5468 5461 5453 5445 5437 5429 5421 5412 5405 5398 5393 5389 5387 5385 5384 5385 5387 5390 5393 5397 5400 5403 5407 5411 5417 5424 5432 5437 5442 5445 5447 5448 5448
5513 5508 5503 5497 5492 5488 5484 5478 5471 5465 5458 5450 5440 5432 5423 5414 5407 5400 5392 5388 5383 5381 5380 5380 5381 5383 5384 5385 5390 5395 5399 5402 5406 5411 5419 5427 5435 5441 5443 5445 5446 5447 5446
5504 5499 5494 5489 5485 5480 5474 5467 5460 5452 5444 5434 5425 5417 5409 5402 5395 5389 5383 5379 5377 5377 5376 5377 5378 5380 5383 5386 5390 5394 5400 5405 5410 5417 5424 5433 5439 5444 5445 5446 5446 5442 5440
5496 5490 5485 5481 5476 5469 5461 5452 5444 5436 5427 5419 5411 5404 5397 5390 5384 5380 5376 5374 5374 5375 5375 5377 5378 5381 5384 5387 5391 5396 5403 5411 5418 5424 5432 5438 5443 5445 5446 5445 5443 5442 5440
5487 5482 5476 5471 5465 5456 5446 5437 5428 5421 5412 5405 5398 5392 5386 5381 5377 5373 5370 5370 5371 5372 5374 5376 5379 5382 5385 5388 5392 5398 5406 5414 5421 5428 5433 5438 5441 5442 5443 5443 5443 5442 5440
5479 5473 5466 5459 5451 5441 5432 5423 5415 5407 5400 5393 5387 5382 5378 5374 5371 5368 5366 5366 5366 5368 5371 5375 5379 5382 5386 5391 5396 5402 5409 5415 5421 5426 5430 5433 5435 5436 5437 5438 5439 5439 5439
5471 5463 5456 5448 5440 5430 5421 5412 5403 5395 5389 5383 5378 5375 5371 5369 5366 5365 5363 5363 5363 5366 5370 5374 5378 5383 5389 5396 5402 5409 5414 5419 5423 5426 5428 5429 5430 5431 5432 5434 5435 5436 5436
5461 5452 5444 5436 5427 5418 5410 5401 5393 5386 5380 5376 5372 5369 5366 5364 5362 5361 5361 5362 5363 5366 5369 5375 5380 5386 5393 5401 5407 5413 5418 5420 5422 5424 5424 5424 5425 5426 5429 5431 5432 5433 5434
5451 5442 5433 5424 5416 5408 5400 5392 5385 5379 5374 5370 5366 5363 5361 5359 5358 5358 5359 5361 5364 5367 5371 5376 5383 5390 5397 5403 5409 5413 5415 5417 5419 5420 5419 5420 5422 5425 5427 5429 5430 5431 5433
5441 5432 5423 5415 5407 5399 5392 5385 5379 5374 5368 5364 5360 5358 5357 5357 5355 5355 5356 5360 5363 5366 5370 5378 5384 5391 5398 5404 5408 5411 5413 5415 5416 5416 5417 5418 5420 5422 5424 5425 5427 5429 5431
5433 5424 5415 5407 5399 5391 5385 5380 5375 5369 5365 5361 5357 5354 5354 5353 5354 5356 5359 5361 5364 5367 5372 5378 5384 5390 5397 5403 5407 5409 5411 5412 5413 5414 5416 5417 5418 5420 5421 5422 5424 5426 5428
5424 5415 5406 5398 5390 5383 5378 5372 5368 5365 5362 5359 5356 5354 5353 5354 5355 5357 5360 5362 5366 5369 5374 5378 5384 5390 5396 5401 5405 5408 5409 5410 5412 5413 5414 5415 5416 5417 5418 5419 5421 5423 5425
5416 5407 5397 5388 5381 5375 5370 5366 5363 5360 5358 5357 5355 5354 5353 5354 5356 5357 5360 5364 5368 5371 5373 5377 5383 5389 5395 5400 5403 5406 5408 5409 5410 5411 5411 5412 5413 5415 5416 5418 5419 5422 5424
5407 5397 5388 5380 5374 5368 5364 5361 5359 5357 5354 5352 5352 5352 5352 5353 5356 5357 5360 5362 5366 5369 5372 5376 5381 5387 5393 5398 5402 5405 5407 5408 5409 5409 5409 5410 5411 5413 5415 5417 5419 5419 5424
5400 5391 5381 5373 5366 5361 5358 5356 5355 5353 5352 5350 5348 5347 5348 5351 5354 5356 5358 5360 5363 5367 5370 5375 5380 5385 5391 5396 5400 5403 5405 5406 5407 5408 5408 5409 5410 5411 5414 5417 5419 5420 5422
5393 5383 5374 5366 5360 5356 5353 5352 5351 5350 5348 5347 5345 5343 5343 5347 5349 5351 5354 5357 5360 5364 5367 5372 5377 5383 5388 5393 5397 5400 5403 5405 5406 5407 5407 5408 5409 5411 5413 5416 5418 5420 5421
5388 5377 5369 5362 5356 5353 5351 5349 5349 5347 5345 5343 5342 5342 5342 5344 5346 5348 5351 5354 5357 5361 5364 5369 5374 5379 5384 5389 5394 5398 5400 5403 5404 5406 5407 5408 5409 5411 5413 5415 5417 5419 5421
5384 5374 5366 5360 5355 5351 5350 5348 5347 5344 5342 5340 5339 5339 5340 5341 5342 5344 5347 5351 5355 5359 5363 5367 5372 5377 5382 5387 5391 5395 5398 5400 5403 5405 5406 5408 5409 5412 5414 5416 5417 5419 5421
5382 5373 5366 5360 5355 5352 5349 5347 5345 5342 5340 5338 5336 5336 5336 5337 5338 5341 5343 5347 5352 5357 5361 5366 5370 5375 5380 5385 5389 5393 5396 5399 5402 5404 5406 5409 5410 5412 5414 5416 5417 5418 5418
5382 5374 5367 5362 5357 5353 5350 5347 5344 5341 5338 5336 5334 5333 5333 5334 5336 5338 5341 5345 5350 5355 5359 5364 5369 5373 5379 5383 5388 5391 5395 5398 5401 5404 5406 5408 5410 5412 5413 5415 5415 5416 5416
5384 5377 5370 5364 5359 5355 5350 5347 5343 5340 5337 5335 5333 5332 5332 5333 5334 5336 5339 5343 5348 5353 5358 5363 5367 5372 5377 5382 5386 5391 5394 5397 5400 5403 5405 5407 5409 5410 5412 5413 5413 5414 5414